Regional Weather Roundup
Issued by NWS

Home | Current Version | Previous Version | Text Only | Print | Product List | Glossary On
Versions: 1 2 3 4 5 6 7 8 9 10 11 12 13 14 15 16 17 18 19 20 21 22 23 24 25 26 27 28 29 30 31 32 33 34 35 36 37 38 39 40 41 42 43 44 45 46 47 48 49 50
000
ASUS44 KOUN 161610
RWROK

WEATHER ROUNDUP FOR OKLAHOMA
NATIONAL WEATHER SERVICE NORMAN OK
1000 AM CST SAT DEC 16 2017

NOTE: "FAIR" INDICATES FEW OR NO CLOUDS BELOW 12,000 FEET WITH NO
      SIGNIFICANT WEATHER AND/OR OBSTRUCTIONS TO VISIBILITY.

OKZ001>007-009>012-014-015-017-161700-
NORTHWEST OKLAHOMA AND THE PANHANDLE

CITY           SKY/WX    TMP DP  RH WIND       PRES   REMARKS
GAGE           SUNNY     45  25  45 S20G26    29.86R
GUYMON         SUNNY     42  22  44 S14       29.75S WCI  35
ENID/WOODRING  MOSUNNY   46  32  57 S16       29.94S
$$

OKZ016-021>023-033>039-044-045-161700-
SOUTHWEST OKLAHOMA

CITY           SKY/WX    TMP DP  RH WIND       PRES   REMARKS
LAWTON/REGL    CLOUDY    44  27  51 S6        30.04F
LAWTON/FT SILL CLOUDY    40  28  61 S9        30.01F WCI  34
FREDERICK      SUNNY     46  27  47 SW13      29.99F
CLINTON        SUNNY     42  26  53 S21       29.96R WCI  33
HOBART         SUNNY     44  26  49 SW22      29.99S
ALTUS AFB      SUNNY     45  24  43 S14       29.99F
$$

OKZ018>020-024>031-161700-
CENTRAL OKLAHOMA

CITY           SKY/WX    TMP DP  RH WIND       PRES   REMARKS
OKLAHOMA CITY  MOSUNNY   46  24  42 S18       30.01S
OKC/WILEY POST SUNNY     46  25  43 SW23      30.00S
OKC/TINKER AFB SUNNY     45  24  44 S18       30.01S
STILLWATER     SUNNY     49  25  39 S13       29.99S
GUTHRIE        SUNNY     50  25  37 SW20G28   29.99S
$$

OKZ008-013-054>072-161700-
NORTHEAST OKLAHOMA

CITY           SKY/WX    TMP DP  RH WIND       PRES   REMARKS
TULSA          MOSUNNY   48  25  40 S15G24    30.06R
TULSA/JONES    SUNNY     48  25  40 S14       30.06R
PONCA CITY     SUNNY     46  27  47 S10       29.97R
BARTLESVILLE   SUNNY     49  27  42 S12G18    30.03S
MUSKOGEE       SUNNY     49  27  42 S14       30.12R
$$

OKZ032-040>043-046>053-073>077-161700-
SOUTH CENTRAL/SOUTHEAST OKLAHOMA

CITY           SKY/WX    TMP DP  RH WIND       PRES   REMARKS
ARDMORE/DWNTWN SUNNY     48  23  37 SW6       30.09F
MCALESTER      SUNNY     49  28  44 SW9       30.12R
$$




USA.gov is the U.S. government's official web portal to all federal, state and local government web resources and services.